Location: Huesca
(42.1318°N, 0.4078°W)
Time: 06:07:34
(UTC+02:00)

O/OREOS (USA 219) - Visible Passes

Search period start: 16 April 2024 00:00
Search period end: 26 April 2024 00:00
Orbit: 621 x 646 km, 72.0° (Epoch: 22 May)

Date Brightness Start Highest point End Pass type
(mag) Time Alt. Az. Time Alt. Az. Time Alt. Az.
16 Apr ? 05:36:45 10° NNE 05:39:09 14° NE 05:41:32 10° E visible
16 Apr ? 21:26:57 10° SSW 21:31:31 65° WNW 21:36:04 10° NNE visible
17 Apr ? 05:57:43 10° N 06:01:35 27° ENE 06:05:24 10° ESE visible
17 Apr ? 21:49:40 10° WSW 21:53:44 30° WNW 21:57:47 10° N visible
18 Apr ? 06:19:22 10° NNW 06:23:50 58° ENE 06:28:13 10° SE visible
18 Apr ? 22:13:21 10° W 22:16:08 16° NW 22:18:55 10° NNW visible
19 Apr ? 05:03:20 10° NNE 05:06:01 15° NE 05:08:41 10° E visible
19 Apr ? 06:41:25 10° NNW 06:45:52 62° WSW 06:50:15 10° S visible
20 Apr ? 05:24:27 10° N 05:28:26 30° ENE 05:32:22 10° ESE visible
20 Apr ? 21:16:39 10° WSW 21:20:34 27° WNW 21:24:30 10° N visible
21 Apr ? 05:46:09 10° NNW 05:50:38 65° ENE 05:55:05 10° SSE visible
21 Apr ? 21:40:31 10° W 21:43:01 14° NW 21:45:30 10° NNW visible
22 Apr ? 04:29:57 10° NNE 04:32:53 17° NE 04:35:48 10° E visible
22 Apr ? 06:08:15 10° NNW 06:12:39 55° WSW 06:17:00 10° S visible
23 Apr ? 04:51:11 10° N 04:55:17 33° ENE 04:59:19 10° SE visible
23 Apr ? 06:30:53 10° NW 06:34:30 24° WSW 06:38:04 10° SSW visible
24 Apr ? 05:12:57 10° NNW 05:17:27 73° ENE 05:21:54 10° SSE visible
25 Apr ? 03:56:36 10° N 03:59:45 18° NE 04:02:52 10° E visible
25 Apr ? 05:35:06 10° NNW 05:39:26 49° WSW 05:43:44 10° S visible
